Weather History for Jackson, TN

Change the Weather History Date:

Thursday, January 17, 2013

  Actual Average Record
Temperature  
Mean Temperature 39 °F 38 °F  
Max Temperature 48 °F 48 °F 72 °F (2012)
Min Temperature 30 °F 28 °F -6 °F (1982)
Degree Days  
Heating Degree Days 26 27  
Month to date heating degree days 403 459  
Since 1 July heating degree days 1765 1877  
Cooling Degree Days 0 0  
Month to date cooling degree days 3 0  
Year to date cooling degree days 3 0  
Moisture  
Dew Point 30 °F    
Average Humidity 76    
Maximum Humidity 92    
Minimum Humidity 60    
Precipitation  
Precipitation 0.00 in 0.13 in 1.62 in (1990)
Month to date precipitation 5.14 2.17  
Year to date precipitation 5.14 2.17  
Snow  
Snow 0.00 in 0.10 in 0.40 in (1984)
Month to date snowfall T 1.3  
Since 1 July snowfall 0.5 1.6  
Snow Depth 0.00 in    
Sea Level Pressure  
Sea Level Pressure 30.27 in    
Wind  
Wind Speed 10 mph (NNW)    
Max Wind Speed 22 mph    
Max Gust Speed 29 mph    
Visibility 10 miles    
Events      
T = Trace of Precipitation, MM = Missing Value Source: NWS Daily Summary

Daily Weather History Graph

Daily Weather History Graph

Search for Another Location

Airport:

Trip Planner

Search our weather history database for the weather conditions in past years. The results will help you decide how hot, cold, wet, or windy it might be!

Date:

Astronomy

Jan. 17, 2013 Rise Set
Actual Time 7:03 AM CST 5:08 PM CST
Civil Twilight 6:36 AM CST 5:35 PM CST
Nautical Twilight 6:05 AM CST 6:07 PM CST
Astronomical Twilight 5:34 AM CST 6:37 PM CST
Moon 10:25 AM CST (1/17) 11:43 PM CST (1/17)
Length of Visible Light 10h 59m
Length of Day
10h 04m
Waxing Crescent, 38% of the Moon is Illuminated
Jan 17
Waxing Crescent
Jan 18
First Quarter
Jan 26
Full
Feb 3
Last Quarter
Feb 10
New

Hourly Weather History & Observations

Time (CST) Temp. Windchill Dew Point Humidity Pressure Visibility Wind Dir Wind Speed Gust Speed Precip Events Conditions
12:53 AM 33.1 °F 28.7 °F 30.0 °F 89% 30.16 in 8.0 mi North 4.6 mph - N/A   Overcast
1:53 AM 32.0 °F 27.5 °F 30.0 °F 92% 30.14 in 8.0 mi NNW 4.6 mph - N/A   Overcast
2:53 AM 32.0 °F 25.6 °F 28.9 °F 88% 30.12 in 8.0 mi NNW 6.9 mph - N/A   Clear
3:53 AM 32.0 °F 27.5 °F 28.9 °F 88% 30.14 in 9.0 mi North 4.6 mph - N/A   Overcast
4:53 AM 32.0 °F 27.5 °F 27.0 °F 82% 30.15 in 10.0 mi NW 4.6 mph - N/A   Overcast
5:53 AM 32.0 °F 26.4 °F 28.0 °F 85% 30.15 in 10.0 mi NNW 5.8 mph - N/A   Mostly Cloudy
6:53 AM 32.0 °F 28.7 °F 28.0 °F 85% 30.17 in 10.0 mi North 3.5 mph - N/A   Mostly Cloudy
7:53 AM 32.0 °F 26.4 °F 27.0 °F 82% 30.19 in 10.0 mi NNW 5.8 mph - N/A   Overcast
8:53 AM 33.1 °F 25.5 °F 28.0 °F 82% 30.21 in 10.0 mi NNW 9.2 mph - N/A   Mostly Cloudy
9:53 AM 35.1 °F 27.9 °F 28.9 °F 78% 30.23 in 10.0 mi North 9.2 mph - N/A   Overcast
10:53 AM 39.9 °F 33.4 °F 30.9 °F 70% 30.20 in 10.0 mi North 10.4 mph - N/A   Partly Cloudy
11:53 AM 45.0 °F 38.2 °F 33.1 °F 63% 30.19 in 10.0 mi North 15.0 mph - N/A   Clear
12:53 PM 46.9 °F - 34.0 °F 61% 30.18 in 10.0 mi NNW 16.1 mph - N/A   Clear
1:53 PM 46.9 °F - 33.1 °F 59% 30.20 in 10.0 mi NNW 16.1 mph - N/A   Clear
2:53 PM 46.0 °F 39.3 °F 33.1 °F 61% 30.24 in 10.0 mi NNW 16.1 mph 25.3 mph N/A   Clear
3:53 PM 45.0 °F 37.1 °F 35.1 °F 68% 30.28 in 10.0 mi NNW 19.6 mph 24.2 mph N/A   Overcast
4:17 PM 44.6 °F 37.2 °F 35.6 °F 71% 30.29 in 10.0 mi NNW 17.3 mph 23.0 mph N/A   Mostly Cloudy
4:53 PM 42.1 °F 34.5 °F 34.0 °F 73% 30.34 in 10.0 mi NNW 15.0 mph 25.3 mph N/A   Overcast
5:53 PM 39.0 °F 31.0 °F 32.0 °F 76% 30.38 in 10.0 mi NNW 13.8 mph - N/A   Mostly Cloudy
6:03 PM 39.2 °F 32.0 °F 32.0 °F 75% 30.38 in 10.0 mi North 11.5 mph - N/A   Scattered Clouds
6:53 PM 36.0 °F 29.6 °F 30.9 °F 82% 30.42 in 10.0 mi NNW 8.1 mph - N/A   Clear
7:53 PM 36.0 °F 29.0 °F 30.0 °F 79% 30.44 in 10.0 mi North 9.2 mph - N/A   Clear
8:53 PM 34.0 °F 26.0 °F 28.0 °F 79% 30.47 in 10.0 mi North 10.4 mph - N/A   Clear
9:53 PM 34.0 °F 26.6 °F 26.1 °F 73% 30.48 in 10.0 mi North 9.2 mph - N/A   Clear
10:53 PM 33.1 °F 27.7 °F 26.1 °F 75% 30.48 in 10.0 mi North 5.8 mph - N/A   Clear
11:53 PM 30.9 °F 26.2 °F 25.0 °F 79% 30.48 in 10.0 mi NNE 4.6 mph - N/A   Clear